星链-37442(STARLINK-37442)

导读

STARLINK-37442(NORAD编号68811)是美国太空探索技术公司(SpaceX)星链(Starlink)星座中的一颗低轨互联网通信卫星,隶属于星链全球卫星互联网组网计划。 作为星链大规模部署中的一员,它运行于近地轨道,属于SpaceX批量生产发射的标准化卫星,承担为全球偏远地区、通信基础设施薄弱区域提供高带宽互联网接入服务的任务,助力星链完成全球覆盖的卫星通信网络构建,是SpaceX通过“一箭多星”模式快速扩张星座规模的组成部分。截至2025年,星链已有超八千颗卫星在轨,该卫星是星座组网运营的重要单元。

Basic Information
目录编号:
68811
目录名称:
STARLINK-37442
国际标识:
2026-089K
轨道中心:
EARTH
卫星名称:
星链-37442
卫星全名:
星链-37442(STARLINK-37442)
卫星状态:
在轨 (已飞行135 天)
发射日期:
2026-04-23 UTC
国别 :
美国 (US)
星等 :
--
Orbit Information
数据来源 国际轨道数据 AOE轨道数据
星历时间 2026-09-05T08:10:04+0800
9小时前
查看轨道信息
2026-09-02T15:00:00+0800
3天前
查看轨道信息
半长轴 6843.708km 6843.555km
偏心率 0.000214 0.0001728
轨道倾角 97.286° 97.288°
近地点辐角 85.900° 99.425°
升交点赤经 93.974° 91.294°
平近点角 274.248° 40.973°
近地点 464.106km 464.235km
远地点 467.036km 466.601km
周期 93.907分钟 93.904分钟
每日圈数 15.334358 15.334871
Detailed Information
固有亮度:
5
最大亮度:
2.5
卫星平台:
Starlink V1.0
覆盖范围:
全球
运营商:
太空探索技术公司
运营商所在国:
美国
制造商(研发单位):
太空探索技术公司
制造商所在国:
美国
使用方式:
暂无
Satellite Introduction
Starlink 计划是 SpaceX 推出的全球卫星互联网项目,通过发射低轨道卫星,为全球尤其是偏远地区提供高速、低延迟的互联网服务。自 2019 年起,Starlink 已部署数千颗卫星,旨在缩小全球数字鸿沟,推动互联网普及。该项目还为军事、航空等行业提供通信支持,带来广泛经济效益。
2D Orbit Map
3D Orbit Map
Orbit Altitude Analysis Chart
Orbit Inclination Analysis Chart
Orbit Comprehensive Analysis Chart
View Comprehensive Chart
Conjunction Data List
Event ID Objects TCA Miss Dist (km) Collision Risk Probability Collision Risk Index (CRI) Action
CDM_260905-015706-881106-959921
2026-09-05T
01:57:21+0000
0.641 km
远距离
8.861735E-5 中风险 0.74
CDM_260830-072706-489006-881121
OBJECT Q (64890)
2026-08-30T
07:27:49+0000
1.642 km
极远距离
4.679986E-6 低风险 0.48
CDM_260905-120204-827606-881124
2026-09-05T
12:02:07+0000
2.791 km
极远距离
1.457624E-6 低风险 0.38